LPA502 UUWW-UGTB

Flight info

Callsign LPA502
Flight time 2h 54m
Altitude 39000
Route TOGMO3A TOGMO M56 ABAGI B105 NATIT DCT MOLED N50 SL DCT SUBED DCT LIDUS G242 TEREK DCT IPLED DCT RIRAN DCT MKL DCT KUFAN DCT LAMUS
Aircraft A359/H-SDE2E3GHIJ3J4J5LM1ORWXY/LB1D1

Departure

Time 2026-04-21 18:45
Airport Vnukovo International Airport (UUWW)

Arrival

Time 2026-04-21 21:39
Airport Tbilisi International Airport (UGTB)
Time Latitude Longitude Altitude Speed Heading
2026-04-21 18:01 55.60418 37.28131 686 ft 0 kts 154°
2026-04-21 18:27 55.60421 37.28128 686 ft 2 kts 154°
2026-04-21 18:27 55.60438 37.28114 678 ft 3 kts 153°
2026-04-21 18:28 55.60456 37.28098 679 ft 3 kts 158°
2026-04-21 18:28 55.60475 37.28085 678 ft 3 kts 160°
2026-04-21 18:28 55.60494 37.28073 678 ft 3 kts 160°
2026-04-21 18:28 55.60512 37.28061 678 ft 2 kts 160°
2026-04-21 18:29 55.60520 37.28056 678 ft 1 kts 160°
2026-04-21 18:29 55.60521 37.28056 678 ft 0 kts 160°
2026-04-21 18:34 55.60513 37.28056 678 ft 5 kts 175°
2026-04-21 18:34 55.60495 37.28029 678 ft 4 kts 225°
2026-04-21 18:34 55.60467 37.27980 679 ft 0 kts 225°
2026-04-21 18:35 55.60464 37.27974 679 ft 5 kts 225°
2026-04-21 18:35 55.60432 37.27917 678 ft 8 kts 225°
2026-04-21 18:36 55.60376 37.27869 679 ft 10 kts 193°
2026-04-21 18:36 55.60304 37.27851 680 ft 11 kts 187°
2026-04-21 18:36 55.60218 37.27845 682 ft 14 kts 174°
2026-04-21 18:36 55.60138 37.27904 683 ft 7 kts 143°
2026-04-21 18:37 55.60095 37.27944 679 ft 5 kts 178°
2026-04-21 18:37 55.60052 37.27931 681 ft 8 kts 189°
2026-04-21 18:37 55.59989 37.27909 680 ft 11 kts 195°
2026-04-21 18:37 55.59910 37.27867 682 ft 13 kts 197°
2026-04-21 18:38 55.59814 37.27812 679 ft 16 kts 198°
2026-04-21 18:38 55.59726 37.27755 679 ft 11 kts 209°
2026-04-21 18:38 55.59676 37.27637 680 ft 13 kts 247°
2026-04-21 18:38 55.59638 37.27471 677 ft 17 kts 248°
2026-04-21 18:39 55.59589 37.27260 676 ft 19 kts 248°
2026-04-21 18:39 55.59547 37.27078 675 ft 16 kts 246°
2026-04-21 18:39 55.59482 37.26907 675 ft 16 kts 226°
2026-04-21 18:39 55.59416 37.26797 675 ft 14 kts 223°
2026-04-21 18:40 55.59341 37.26674 673 ft 16 kts 223°
2026-04-21 18:40 55.59247 37.26550 675 ft 18 kts 210°
2026-04-21 18:40 55.59169 37.26487 675 ft 19 kts 204°
2026-04-21 18:40 55.59026 37.26376 668 ft 14 kts 204°
2026-04-21 18:41 55.58920 37.26294 658 ft 17 kts 204°
2026-04-21 18:41 55.58838 37.26216 658 ft 11 kts 228°
2026-04-21 18:41 55.58820 37.26155 658 ft 0 kts 251°
2026-04-21 18:42 55.58811 37.26110 658 ft 6 kts 250°
2026-04-21 18:43 55.58793 37.26018 658 ft 9 kts 250°
2026-04-21 18:43 55.58799 37.25924 658 ft 7 kts 328°
2026-04-21 18:43 55.58848 37.25920 658 ft 8 kts 15°
2026-04-21 18:43 55.58866 37.25932 658 ft 0 kts 21°
2026-04-21 18:44 55.58975 37.26009 667 ft 48 kts 23°
2026-04-21 18:44 55.59494 37.26406 675 ft 113 kts 23°
2026-04-21 18:45 55.60394 37.27081 690 ft 166 kts 21°
2026-04-21 18:45 55.61531 37.27931 1120 ft 184 kts 22°
2026-04-21 18:45 55.62693 37.28821 2107 ft 182 kts 24°
2026-04-21 18:45 55.63882 37.29750 2844 ft 187 kts 24°
2026-04-21 18:46 55.65079 37.30677 3548 ft 189 kts 24°
2026-04-21 18:46 55.66220 37.31886 4190 ft 196 kts 41°
2026-04-21 18:46 55.66943 37.33939 4841 ft 203 kts 72°
2026-04-21 18:46 55.66910 37.36521 5320 ft 222 kts 104°
2026-04-21 18:47 55.66324 37.39115 5920 ft 230 kts 111°
2026-04-21 18:47 55.65507 37.41599 6600 ft 238 kts 126°
2026-04-21 18:47 55.64185 37.43476 7110 ft 255 kts 148°
2026-04-21 18:47 55.62556 37.44914 7580 ft 268 kts 152°
2026-04-21 18:48 55.60847 37.46318 7869 ft 272 kts 152°
2026-04-21 18:48 55.59068 37.47516 7910 ft 276 kts 165°
2026-04-21 18:48 55.57149 37.47505 7913 ft 280 kts 194°
2026-04-21 18:48 55.55437 37.45908 7919 ft 280 kts 220°
2026-04-21 18:49 55.54007 37.43570 7914 ft 281 kts 225°
2026-04-21 18:49 55.52618 37.41134 7913 ft 282 kts 226°
2026-04-21 18:49 55.51696 37.39523 7915 ft 282 kts 225°
2026-04-21 18:49 55.49816 37.36370 7909 ft 282 kts 220°
2026-04-21 18:50 55.48065 37.34773 7908 ft 281 kts 192°
2026-04-21 18:50 55.46168 37.34808 7922 ft 280 kts 162°
2026-04-21 18:50 55.44483 37.36444 7913 ft 278 kts 133°
2026-04-21 18:50 55.43351 37.39152 7915 ft 275 kts 118°
2026-04-21 18:51 55.42238 37.41914 7912 ft 278 kts 124°
2026-04-21 18:51 55.41045 37.44585 7914 ft 278 kts 125°
2026-04-21 18:51 55.39829 37.47237 7914 ft 278 kts 125°
2026-04-21 18:51 55.38608 37.49878 7923 ft 278 kts 126°
2026-04-21 18:52 55.37387 37.52507 7915 ft 278 kts 126°
2026-04-21 18:52 55.36066 37.54989 7916 ft 280 kts 136°
2026-04-21 18:52 55.34512 37.57105 8140 ft 284 kts 141°
2026-04-21 18:52 55.32901 37.59152 8661 ft 287 kts 141°
2026-04-21 18:53 55.31285 37.61198 8894 ft 286 kts 141°
2026-04-21 18:53 55.29675 37.63244 8916 ft 287 kts 140°
2026-04-21 18:53 55.28058 37.65301 8917 ft 287 kts 140°
2026-04-21 18:53 55.26441 37.67364 8952 ft 287 kts 140°
2026-04-21 18:54 55.24819 37.69437 9348 ft 291 kts 140°
2026-04-21 18:54 55.23174 37.71532 10061 ft 294 kts 140°
2026-04-21 18:54 55.21485 37.73686 10480 ft 308 kts 140°
2026-04-21 18:54 55.19724 37.75930 10975 ft 317 kts 140°
2026-04-21 18:55 55.18537 37.77436 11398 ft 319 kts 141°
2026-04-21 18:55 55.16206 37.80679 12318 ft 321 kts 133°
2026-04-21 18:55 55.14623 37.83453 12789 ft 324 kts 130°
2026-04-21 18:55 55.13058 37.86311 12914 ft 326 kts 130°
2026-04-21 18:56 55.11489 37.89179 12914 ft 327 kts 130°
2026-04-21 18:56 55.09910 37.92056 12923 ft 328 kts 130°
2026-04-21 18:56 55.08328 37.94941 13198 ft 331 kts 130°
2026-04-21 18:56 55.06729 37.97850 13877 ft 333 kts 130°
2026-04-21 18:57 55.05120 38.00771 14481 ft 335 kts 130°
2026-04-21 18:57 55.03494 38.03719 15069 ft 339 kts 130°
2026-04-21 18:57 55.01841 38.06688 15660 ft 343 kts 131°
2026-04-21 18:57 55.00171 38.09678 16243 ft 346 kts 131°
2026-04-21 18:58 54.98481 38.12700 16834 ft 350 kts 131°
2026-04-21 18:58 54.96774 38.15751 17407 ft 354 kts 131°
2026-04-21 18:58 54.95048 38.18833 17985 ft 358 kts 132°
2026-04-21 18:58 54.93301 38.21949 18477 ft 361 kts 132°
2026-04-21 18:59 54.91566 38.25040 18818 ft 362 kts 132°
2026-04-21 18:59 54.89780 38.28216 18917 ft 363 kts 132°
2026-04-21 18:59 54.88014 38.31351 18918 ft 364 kts 133°
2026-04-21 18:59 54.86268 38.34456 18917 ft 364 kts 132°
2026-04-21 19:00 54.84669 38.37913 18934 ft 362 kts 120°
2026-04-21 19:00 54.83410 38.41641 19195 ft 364 kts 117°
2026-04-21 19:00 54.82179 38.45488 19760 ft 365 kts 117°
2026-04-21 19:00 54.80946 38.49335 20322 ft 366 kts 117°
2026-04-21 19:01 54.79705 38.53189 20763 ft 368 kts 117°
2026-04-21 19:01 54.78453 38.57060 20921 ft 368 kts 117°
2026-04-21 19:01 54.77149 38.60882 20920 ft 370 kts 122°
2026-04-21 19:01 54.75460 38.64254 20922 ft 373 kts 137°
2026-04-21 19:02 54.73324 38.66895 21034 ft 384 kts 147°
2026-04-21 19:02 54.71008 38.69314 21211 ft 395 kts 148°
2026-04-21 19:02 54.68617 38.71770 21400 ft 404 kts 148°
2026-04-21 19:02 54.66170 38.74291 21581 ft 414 kts 148°
2026-04-21 19:03 54.64490 38.76027 21694 ft 420 kts 148°
2026-04-21 19:03 54.61972 38.78629 21969 ft 425 kts 148°
2026-04-21 19:03 54.59430 38.81267 22370 ft 427 kts 148°
2026-04-21 19:03 54.56879 38.83911 22774 ft 429 kts 148°
2026-04-21 19:04 54.54315 38.86566 23180 ft 431 kts 148°
2026-04-21 19:04 54.51738 38.89230 23604 ft 432 kts 148°
2026-04-21 19:04 54.49158 38.91895 23941 ft 434 kts 148°
2026-04-21 19:04 54.46594 38.94539 24277 ft 436 kts 148°
2026-04-21 19:05 54.43991 38.97221 24623 ft 438 kts 148°
2026-04-21 19:05 54.41445 39.00118 24961 ft 439 kts 141°
2026-04-21 19:05 54.39241 39.03739 25308 ft 440 kts 129°
2026-04-21 19:05 54.37542 39.08093 25665 ft 440 kts 117°
2026-04-21 19:06 54.36202 39.12815 26034 ft 441 kts 113°
2026-04-21 19:06 54.35003 39.17669 26416 ft 443 kts 111°
2026-04-21 19:06 54.33863 39.22594 26788 ft 446 kts 110°
2026-04-21 19:06 54.32729 39.27567 27144 ft 449 kts 110°
2026-04-21 19:07 54.31578 39.32546 27557 ft 451 kts 111°
2026-04-21 19:07 54.30401 39.37538 27983 ft 454 kts 111°
2026-04-21 19:07 54.29197 39.42554 28410 ft 456 kts 112°
2026-04-21 19:07 54.27976 39.47582 28830 ft 459 kts 112°
2026-04-21 19:08 54.26740 39.52639 29251 ft 462 kts 112°
2026-04-21 19:08 54.25495 39.57711 29665 ft 464 kts 112°
2026-04-21 19:08 54.24239 39.62816 30066 ft 467 kts 112°
2026-04-21 19:08 54.22975 39.67942 30381 ft 470 kts 112°
2026-04-21 19:09 54.21701 39.73104 30667 ft 473 kts 112°
2026-04-21 19:09 54.20419 39.78287 30970 ft 476 kts 112°
2026-04-21 19:09 54.19124 39.83512 31256 ft 478 kts 112°
2026-04-21 19:09 54.17823 39.88751 31529 ft 481 kts 112°
2026-04-21 19:10 54.16510 39.94024 31781 ft 484 kts 112°
2026-04-21 19:10 54.15187 39.99325 32039 ft 487 kts 112°
2026-04-21 19:10 54.13855 40.04650 32272 ft 489 kts 112°
2026-04-21 19:10 54.12517 40.10013 32486 ft 492 kts 112°
2026-04-21 19:11 54.11380 40.15513 32780 ft 493 kts 107°
2026-04-21 19:11 54.10358 40.21086 33080 ft 493 kts 107°
2026-04-21 19:11 54.09367 40.26683 33406 ft 493 kts 106°
2026-04-21 19:11 54.08395 40.32283 33741 ft 493 kts 106°
2026-04-21 19:12 54.07426 40.37893 34047 ft 493 kts 106°
2026-04-21 19:12 54.06457 40.43493 34297 ft 493 kts 106°
2026-04-21 19:12 54.05483 40.49095 34532 ft 494 kts 106°
2026-04-21 19:12 54.04503 40.54696 34790 ft 494 kts 106°
2026-04-21 19:13 54.03517 40.60298 35030 ft 494 kts 106°
2026-04-21 19:13 54.02528 40.65894 35257 ft 495 kts 107°
2026-04-21 19:13 54.01534 40.71499 35506 ft 495 kts 107°
2026-04-21 19:13 54.00535 40.77110 35661 ft 497 kts 107°
2026-04-21 19:14 53.99531 40.82735 35914 ft 497 kts 107°
2026-04-21 19:14 53.98525 40.88353 36183 ft 497 kts 107°
2026-04-21 19:14 53.97514 40.93977 36387 ft 498 kts 107°
2026-04-21 19:14 53.96502 40.99595 36637 ft 497 kts 107°
2026-04-21 19:15 53.95500 41.05142 36851 ft 498 kts 107°
2026-04-21 19:15 53.94523 41.10786 37065 ft 499 kts 106°
2026-04-21 19:15 53.93595 41.16448 37321 ft 498 kts 105°
2026-04-21 19:15 53.92685 41.22121 37530 ft 499 kts 105°
2026-04-21 19:16 53.91772 41.27806 37728 ft 499 kts 105°
2026-04-21 19:16 53.90852 41.33483 37952 ft 499 kts 106°
2026-04-21 19:16 53.89922 41.39157 38162 ft 499 kts 106°
2026-04-21 19:16 53.88985 41.44819 38377 ft 499 kts 106°
2026-04-21 19:17 53.87089 41.56161 38677 ft 501 kts 106°
2026-04-21 19:17 53.86135 41.61835 38835 ft 501 kts 106°
2026-04-21 19:17 53.85175 41.67519 38925 ft 502 kts 106°
2026-04-21 19:18 53.83254 41.78865 38933 ft 501 kts 107°
2026-04-21 19:18 53.81315 41.90203 38929 ft 501 kts 107°
2026-04-21 19:19 53.79356 42.01530 38931 ft 501 kts 107°
2026-04-21 19:19 53.77390 42.12843 38924 ft 502 kts 107°
2026-04-21 19:20 53.75416 42.24147 38923 ft 501 kts 107°
2026-04-21 19:20 53.73430 42.35444 38924 ft 502 kts 107°
2026-04-21 19:21 53.71433 42.46740 38928 ft 502 kts 107°
2026-04-21 19:21 53.69081 42.57733 38928 ft 501 kts 118°
2026-04-21 19:22 53.65027 42.67179 38923 ft 498 kts 137°
2026-04-21 19:22 53.59375 42.73771 38923 ft 495 kts 155°
2026-04-21 19:23 53.53085 42.78496 38927 ft 495 kts 158°
2026-04-21 19:23 53.46723 42.82935 38924 ft 495 kts 158°
2026-04-21 19:24 53.40364 42.87404 38925 ft 495 kts 158°
2026-04-21 19:24 53.34021 42.91918 38926 ft 495 kts 158°
2026-04-21 19:25 53.27686 42.96440 38928 ft 495 kts 158°
2026-04-21 19:25 53.21351 43.00949 38929 ft 495 kts 158°
2026-04-21 19:26 53.15023 43.05435 38931 ft 494 kts 158°
2026-04-21 19:26 53.08718 43.09985 38927 ft 494 kts 157°
2026-04-21 19:27 53.02495 43.14649 38923 ft 494 kts 157°
2026-04-21 19:27 52.96229 43.19335 38928 ft 494 kts 157°
2026-04-21 19:28 52.89912 43.24016 38925 ft 494 kts 157°
2026-04-21 19:28 52.83678 43.28606 38925 ft 494 kts 157°
2026-04-21 19:29 52.77397 43.33214 38921 ft 494 kts 158°
2026-04-21 19:29 52.71111 43.37811 38917 ft 494 kts 158°
2026-04-21 19:30 52.64820 43.42398 38920 ft 494 kts 158°
2026-04-21 19:30 52.58534 43.46968 38916 ft 494 kts 158°
2026-04-21 19:31 52.52243 43.51526 38916 ft 494 kts 158°
2026-04-21 19:31 52.45953 43.56070 38920 ft 494 kts 158°
2026-04-21 19:32 52.39663 43.60599 38918 ft 494 kts 158°
2026-04-21 19:32 52.33371 43.65116 38919 ft 494 kts 158°
2026-04-21 19:33 52.27077 43.69620 38921 ft 494 kts 158°
2026-04-21 19:33 52.20781 43.74112 38925 ft 494 kts 158°
2026-04-21 19:34 52.14486 43.78588 38924 ft 494 kts 158°
2026-04-21 19:34 52.08192 43.83050 38924 ft 493 kts 158°
2026-04-21 19:35 51.98748 43.89721 38922 ft 494 kts 159°
2026-04-21 19:36 51.92444 43.94156 38925 ft 494 kts 159°
2026-04-21 19:36 51.86143 43.98575 38926 ft 494 kts 159°
2026-04-21 19:37 51.79834 44.02986 38935 ft 494 kts 159°
2026-04-21 19:37 51.73531 44.07380 38934 ft 493 kts 159°
2026-04-21 19:38 51.67229 44.11760 38932 ft 493 kts 159°
2026-04-21 19:38 51.61989 44.15392 38933 ft 493 kts 159°
2026-04-21 19:39 51.54621 44.20483 38924 ft 493 kts 159°
2026-04-21 19:39 51.48362 44.24794 38935 ft 493 kts 159°
2026-04-21 19:40 51.42061 44.29119 38934 ft 492 kts 159°
2026-04-21 19:40 51.35758 44.33434 38938 ft 492 kts 159°
2026-04-21 19:41 51.29459 44.37734 38928 ft 492 kts 159°
2026-04-21 19:41 51.23150 44.42026 38936 ft 493 kts 160°
2026-04-21 19:42 51.16717 44.45642 38939 ft 488 kts 171°
2026-04-21 19:42 51.10008 44.46419 38938 ft 483 kts 184°
2026-04-21 19:43 51.03300 44.45891 38938 ft 483 kts 186°
2026-04-21 19:43 50.96606 44.45172 38937 ft 481 kts 186°
2026-04-21 19:44 50.89925 44.44488 38937 ft 481 kts 186°
2026-04-21 19:44 50.83249 44.43852 38937 ft 480 kts 186°
2026-04-21 19:45 50.76581 44.43235 38938 ft 480 kts 186°
2026-04-21 19:45 50.69911 44.42621 38937 ft 480 kts 186°
2026-04-21 19:46 50.63245 44.42007 38938 ft 479 kts 186°
2026-04-21 19:46 50.56594 44.41396 38939 ft 478 kts 186°
2026-04-21 19:47 50.49952 44.40786 38935 ft 478 kts 186°
2026-04-21 19:47 50.43306 44.40177 38936 ft 478 kts 186°
2026-04-21 19:48 50.36711 44.39575 38937 ft 478 kts 186°
2026-04-21 19:48 50.30076 44.38972 38936 ft 477 kts 186°
2026-04-21 19:49 50.23460 44.38373 38937 ft 475 kts 186°
2026-04-21 19:49 50.16870 44.37777 38936 ft 475 kts 186°
2026-04-21 19:50 50.11343 44.37277 38934 ft 475 kts 186°
2026-04-21 19:50 50.04751 44.36683 38936 ft 475 kts 186°
2026-04-21 19:51 49.98154 44.36091 38930 ft 475 kts 186°
2026-04-21 19:51 49.91607 44.35505 38939 ft 474 kts 186°
2026-04-21 19:52 49.85020 44.34917 38938 ft 474 kts 186°
2026-04-21 19:52 49.78436 44.34330 38939 ft 474 kts 186°
2026-04-21 19:53 49.71852 44.33746 38938 ft 474 kts 186°
2026-04-21 19:53 49.65267 44.33163 38939 ft 474 kts 186°
2026-04-21 19:54 49.58664 44.32995 38935 ft 478 kts 178°
2026-04-21 19:54 49.52162 44.35370 38938 ft 485 kts 163°
2026-04-21 19:55 49.45874 44.39217 38935 ft 487 kts 161°
2026-04-21 19:55 49.39627 44.43284 38915 ft 488 kts 161°
2026-04-21 19:56 49.33376 44.47316 38937 ft 487 kts 161°
2026-04-21 19:56 49.27124 44.51285 38933 ft 486 kts 161°
2026-04-21 19:57 49.20862 44.55227 38930 ft 487 kts 161°
2026-04-21 19:57 49.14598 44.59158 38931 ft 487 kts 161°
2026-04-21 19:58 49.08339 44.63078 38933 ft 486 kts 161°
2026-04-21 19:58 49.02093 44.66981 38933 ft 486 kts 162°
2026-04-21 19:59 48.95879 44.70853 38927 ft 486 kts 162°
2026-04-21 19:59 48.89627 44.74738 38920 ft 485 kts 162°
2026-04-21 20:00 48.83497 44.79084 38925 ft 491 kts 152°
2026-04-21 20:00 48.77917 44.85149 38931 ft 495 kts 147°
2026-04-21 20:01 48.72490 44.91588 38930 ft 496 kts 146°
2026-04-21 20:01 48.67083 44.98062 38930 ft 495 kts 146°
2026-04-21 20:02 48.61662 45.04490 38930 ft 495 kts 146°
2026-04-21 20:02 48.56227 45.10881 38927 ft 495 kts 146°
2026-04-21 20:03 48.50790 45.17250 38926 ft 496 kts 147°
2026-04-21 20:03 48.45323 45.23634 38927 ft 497 kts 147°
2026-04-21 20:04 48.39722 45.29706 38931 ft 493 kts 155°
2026-04-21 20:04 48.33680 45.34480 38930 ft 490 kts 158°
2026-04-21 20:05 48.27554 45.38973 38929 ft 489 kts 158°
2026-04-21 20:05 48.21424 45.43414 38928 ft 489 kts 158°
2026-04-21 20:06 48.15300 45.47866 38935 ft 489 kts 158°
2026-04-21 20:06 48.09177 45.52324 38920 ft 489 kts 158°
2026-04-21 20:07 48.03063 45.56771 38930 ft 488 kts 158°
2026-04-21 20:07 47.96959 45.61197 38932 ft 488 kts 158°
2026-04-21 20:08 47.90896 45.65580 38944 ft 488 kts 158°
2026-04-21 20:08 47.84789 45.69983 38934 ft 488 kts 158°
2026-04-21 20:09 47.78684 45.74374 38933 ft 487 kts 158°
2026-04-21 20:09 47.72580 45.78753 38938 ft 487 kts 158°
2026-04-21 20:10 47.66484 45.83115 38925 ft 486 kts 158°
2026-04-21 20:10 47.60385 45.87466 38938 ft 486 kts 158°
2026-04-21 20:11 47.54285 45.91808 38944 ft 486 kts 159°
2026-04-21 20:11 47.48187 45.96136 38945 ft 486 kts 159°
2026-04-21 20:12 47.42083 46.00459 38947 ft 486 kts 159°
2026-04-21 20:12 47.35981 46.04772 38946 ft 486 kts 159°
2026-04-21 20:13 47.29880 46.09087 38947 ft 486 kts 159°
2026-04-21 20:13 47.23784 46.13391 38928 ft 485 kts 158°
2026-04-21 20:14 47.17689 46.17681 38947 ft 485 kts 159°
2026-04-21 20:14 47.11595 46.21958 38950 ft 486 kts 159°
2026-04-21 20:15 47.05820 46.27192 38952 ft 494 kts 144°
2026-04-21 20:15 47.01253 46.34818 38951 ft 503 kts 128°
2026-04-21 20:16 46.97449 46.43367 38954 ft 505 kts 126°
2026-04-21 20:16 46.93727 46.52105 38957 ft 506 kts 126°
2026-04-21 20:17 46.89977 46.60809 38940 ft 505 kts 126°
2026-04-21 20:17 46.86200 46.69453 38962 ft 504 kts 126°
2026-04-21 20:18 46.83053 46.76603 38962 ft 503 kts 126°
2026-04-21 20:18 46.78617 46.86647 38973 ft 503 kts 126°
2026-04-21 20:19 46.74819 46.95224 38964 ft 503 kts 126°
2026-04-21 20:19 46.71029 47.03759 38971 ft 501 kts 127°
2026-04-21 20:20 46.67251 47.12289 38972 ft 501 kts 126°
2026-04-21 20:20 46.63524 47.20864 38974 ft 501 kts 126°
2026-04-21 20:21 46.59799 47.29432 38975 ft 501 kts 126°
2026-04-21 20:21 46.56083 47.37929 38977 ft 501 kts 126°
2026-04-21 20:22 46.52331 47.46466 38984 ft 501 kts 126°
2026-04-21 20:22 46.46690 47.59244 38981 ft 501 kts 126°
2026-04-21 20:23 46.42924 47.67746 38980 ft 501 kts 126°
2026-04-21 20:23 46.39152 47.76234 38983 ft 501 kts 126°
2026-04-21 20:24 46.35373 47.84712 38985 ft 501 kts 126°
2026-04-21 20:24 46.31583 47.93189 38992 ft 502 kts 127°
2026-04-21 20:25 46.28249 48.02092 38992 ft 509 kts 114°
2026-04-21 20:25 46.26357 48.12001 38993 ft 513 kts 106°
2026-04-21 20:26 46.24823 48.22074 38985 ft 513 kts 105°
2026-04-21 20:26 46.23328 48.32144 38992 ft 513 kts 105°
2026-04-21 20:27 46.21796 48.42202 38991 ft 512 kts 105°
2026-04-21 20:27 46.20076 48.52164 38991 ft 509 kts 112°
2026-04-21 20:28 46.16809 48.61067 38979 ft 498 kts 131°
2026-04-21 20:28 46.11891 48.67915 38992 ft 490 kts 145°
2026-04-21 20:29 46.06496 48.73795 38993 ft 489 kts 147°
2026-04-21 20:29 46.01000 48.79580 38998 ft 489 kts 147°
2026-04-21 20:30 45.95520 48.85391 38995 ft 490 kts 147°
2026-04-21 20:30 45.90023 48.91154 38990 ft 488 kts 151°
2026-04-21 20:31 45.83955 48.95214 38992 ft 478 kts 167°
2026-04-21 20:31 45.77473 48.97145 38990 ft 475 kts 173°
2026-04-21 20:32 45.70941 48.98622 39002 ft 475 kts 174°
2026-04-21 20:32 45.64405 49.00057 38999 ft 476 kts 174°
2026-04-21 20:33 45.57865 49.01536 38997 ft 476 kts 174°
2026-04-21 20:33 45.51328 49.03040 38997 ft 476 kts 174°
2026-04-21 20:34 45.44793 49.04546 38998 ft 476 kts 174°
2026-04-21 20:34 45.38255 49.06047 38995 ft 476 kts 174°
2026-04-21 20:35 45.31716 49.07544 38989 ft 476 kts 174°
2026-04-21 20:35 45.25218 49.09027 38993 ft 476 kts 174°
2026-04-21 20:36 45.18672 49.10518 38993 ft 476 kts 174°
2026-04-21 20:36 45.12129 49.12005 38992 ft 476 kts 174°
2026-04-21 20:37 45.05583 49.13489 38992 ft 476 kts 174°
2026-04-21 20:37 44.99046 49.14968 38993 ft 476 kts 174°
2026-04-21 20:38 44.92498 49.16445 38993 ft 477 kts 174°
2026-04-21 20:38 44.85950 49.17920 38986 ft 476 kts 174°
2026-04-21 20:39 44.79399 49.19391 38993 ft 476 kts 174°
2026-04-21 20:39 44.72854 49.20858 38991 ft 476 kts 174°
2026-04-21 20:40 44.67414 49.22075 38994 ft 477 kts 174°
2026-04-21 20:40 44.60860 49.23537 38995 ft 477 kts 174°
2026-04-21 20:41 44.54304 49.24952 38992 ft 476 kts 176°
2026-04-21 20:41 44.47746 49.24829 38992 ft 469 kts 191°
2026-04-21 20:42 44.41591 49.22051 38995 ft 465 kts 208°
2026-04-21 20:42 44.36122 49.17259 38987 ft 464 kts 216°
2026-04-21 20:43 44.30889 49.11964 38991 ft 465 kts 217°
2026-04-21 20:43 44.25663 49.06655 38993 ft 465 kts 216°
2026-04-21 20:44 44.20398 49.01418 38990 ft 465 kts 216°
2026-04-21 20:44 44.15120 48.96231 38993 ft 465 kts 216°
2026-04-21 20:45 44.09830 48.91054 38993 ft 465 kts 216°
2026-04-21 20:45 44.04541 48.85885 39001 ft 465 kts 216°
2026-04-21 20:46 43.99251 48.80724 38996 ft 465 kts 216°
2026-04-21 20:46 43.93955 48.75568 38989 ft 465 kts 216°
2026-04-21 20:47 43.88656 48.70420 38996 ft 465 kts 216°
2026-04-21 20:47 43.83357 48.65284 38997 ft 465 kts 216°
2026-04-21 20:48 43.78056 48.60157 38996 ft 465 kts 216°
2026-04-21 20:48 43.72751 48.55037 38998 ft 465 kts 216°
2026-04-21 20:49 43.67444 48.49928 38997 ft 465 kts 216°
2026-04-21 20:49 43.62175 48.44866 38999 ft 464 kts 216°
2026-04-21 20:50 43.56872 48.39782 38996 ft 464 kts 216°
2026-04-21 20:50 43.51564 48.34704 38987 ft 464 kts 216°
2026-04-21 20:51 43.46253 48.29634 38993 ft 465 kts 216°
2026-04-21 20:51 43.40938 48.24572 38993 ft 465 kts 216°
2026-04-21 20:52 43.35623 48.19521 38993 ft 465 kts 216°
2026-04-21 20:52 43.30300 48.14473 38991 ft 465 kts 216°
2026-04-21 20:53 43.24966 48.09425 38993 ft 466 kts 216°
2026-04-21 20:53 43.19633 48.04389 38990 ft 466 kts 216°
2026-04-21 20:54 43.14296 47.99362 38990 ft 466 kts 216°
2026-04-21 20:54 43.08954 47.94340 38990 ft 466 kts 216°
2026-04-21 20:55 43.03611 47.89327 38990 ft 466 kts 216°
2026-04-21 20:55 42.98264 47.84321 38988 ft 466 kts 216°
2026-04-21 20:56 42.92916 47.79326 38988 ft 466 kts 216°
2026-04-21 20:56 42.87574 47.74347 38966 ft 465 kts 216°
2026-04-21 20:57 42.82225 47.69371 38965 ft 465 kts 216°
2026-04-21 20:57 42.77500 47.63445 38966 ft 461 kts 230°
2026-04-21 20:58 42.73380 47.56746 38967 ft 462 kts 232°
2026-04-21 20:58 42.69365 47.49936 38971 ft 462 kts 232°
2026-04-21 20:59 42.65345 47.43136 38975 ft 462 kts 232°
2026-04-21 20:59 42.61301 47.36359 38985 ft 462 kts 232°
2026-04-21 21:00 42.57247 47.29603 38984 ft 462 kts 232°
2026-04-21 21:00 42.53187 47.22856 38984 ft 461 kts 232°
2026-04-21 21:01 42.49126 47.16121 38975 ft 461 kts 232°
2026-04-21 21:01 42.45063 47.09395 38929 ft 460 kts 232°
2026-04-21 21:02 42.43047 47.06065 38502 ft 456 kts 232°
2026-04-21 21:02 42.41035 47.02744 37700 ft 457 kts 232°
2026-04-21 21:02 42.39012 46.99410 36814 ft 460 kts 232°
2026-04-21 21:02 42.36975 46.96055 35988 ft 462 kts 232°
2026-04-21 21:03 42.34959 46.92739 35213 ft 464 kts 232°
2026-04-21 21:03 42.32905 46.89364 34437 ft 465 kts 233°
2026-04-21 21:03 42.30816 46.85937 33563 ft 467 kts 233°
2026-04-21 21:03 42.28778 46.82594 32661 ft 468 kts 232°
2026-04-21 21:04 42.26704 46.79197 31779 ft 469 kts 232°
2026-04-21 21:04 42.24616 46.75783 31413 ft 475 kts 232°
2026-04-21 21:04 42.22509 46.72339 31151 ft 477 kts 232°
2026-04-21 21:04 42.20394 46.68885 30902 ft 477 kts 232°
2026-04-21 21:05 42.18279 46.65440 30580 ft 475 kts 232°
2026-04-21 21:05 42.16173 46.62013 29587 ft 476 kts 232°
2026-04-21 21:05 42.14059 46.58575 28724 ft 474 kts 232°
2026-04-21 21:05 42.11973 46.55186 28096 ft 467 kts 232°
2026-04-21 21:06 42.09909 46.51841 27424 ft 462 kts 232°
2026-04-21 21:06 42.07865 46.48533 26758 ft 457 kts 232°
2026-04-21 21:06 42.05837 46.45259 26080 ft 453 kts 232°
2026-04-21 21:06 42.03829 46.42016 25429 ft 449 kts 232°
2026-04-21 21:07 42.01836 46.38793 24763 ft 445 kts 232°
2026-04-21 21:07 41.99866 46.35611 24105 ft 441 kts 232°
2026-04-21 21:07 41.97910 46.32452 23410 ft 437 kts 232°
2026-04-21 21:07 41.95976 46.29334 22717 ft 432 kts 232°
2026-04-21 21:08 41.94105 46.26216 22081 ft 426 kts 236°
2026-04-21 21:08 41.92404 46.22995 21431 ft 420 kts 237°
2026-04-21 21:08 41.90750 46.19800 20788 ft 415 kts 237°
2026-04-21 21:08 41.89102 46.16647 20144 ft 411 kts 237°
2026-04-21 21:09 41.87457 46.13529 19492 ft 407 kts 236°
2026-04-21 21:09 41.85820 46.10448 18835 ft 404 kts 236°
2026-04-21 21:09 41.84192 46.07396 18155 ft 401 kts 236°
2026-04-21 21:09 41.82575 46.04373 17459 ft 397 kts 236°
2026-04-21 21:10 41.80976 46.01390 16791 ft 392 kts 236°
2026-04-21 21:10 41.79393 45.98440 16137 ft 387 kts 236°
2026-04-21 21:10 41.77828 45.95528 15469 ft 383 kts 236°
2026-04-21 21:10 41.76276 45.92642 14804 ft 380 kts 236°
2026-04-21 21:11 41.74740 45.89790 14154 ft 376 kts 236°
2026-04-21 21:11 41.73214 45.86958 13454 ft 373 kts 236°
2026-04-21 21:11 41.71702 45.84155 12781 ft 368 kts 237°
2026-04-21 21:11 41.70213 45.81399 12132 ft 363 kts 237°
2026-04-21 21:12 41.68742 45.78680 11473 ft 359 kts 237°
2026-04-21 21:12 41.67296 45.76008 11171 ft 346 kts 237°
2026-04-21 21:12 41.65919 45.73472 11065 ft 328 kts 237°
2026-04-21 21:12 41.64629 45.71094 10963 ft 312 kts 237°
2026-04-21 21:13 41.63388 45.68806 10850 ft 297 kts 237°
2026-04-21 21:13 41.62206 45.66628 10742 ft 283 kts 237°
2026-04-21 21:13 41.61077 45.64552 10621 ft 269 kts 238°
2026-04-21 21:13 41.60001 45.62571 10497 ft 258 kts 238°
2026-04-21 21:14 41.58959 45.60650 10362 ft 255 kts 238°
2026-04-21 21:14 41.57921 45.58737 10059 ft 253 kts 238°
2026-04-21 21:14 41.56876 45.56809 9744 ft 264 kts 238°
2026-04-21 21:14 41.55781 45.54787 9578 ft 271 kts 238°
2026-04-21 21:15 41.54807 45.52697 9122 ft 259 kts 253°
2026-04-21 21:15 41.54714 45.50346 8734 ft 256 kts 283°
2026-04-21 21:15 41.55175 45.48055 8402 ft 256 kts 287°
2026-04-21 21:15 41.55682 45.45780 8104 ft 255 kts 287°
2026-04-21 21:16 41.56186 45.43516 7808 ft 254 kts 287°
2026-04-21 21:16 41.56629 45.41250 7507 ft 249 kts 279°
2026-04-21 21:16 41.56412 45.39025 7250 ft 244 kts 251°
2026-04-21 21:16 41.55540 45.37095 6980 ft 241 kts 242°
2026-04-21 21:17 41.54737 45.35173 6719 ft 235 kts 246°
2026-04-21 21:17 41.53986 45.33260 6439 ft 231 kts 245°
2026-04-21 21:17 41.53279 45.31355 6160 ft 228 kts 246°
2026-04-21 21:17 41.52594 45.29466 5873 ft 225 kts 246°
2026-04-21 21:18 41.51924 45.27595 5599 ft 222 kts 247°
2026-04-21 21:18 41.51267 45.25741 5321 ft 220 kts 247°
2026-04-21 21:18 41.50672 45.23875 5045 ft 217 kts 252°
2026-04-21 21:18 41.50198 45.21977 4750 ft 215 kts 253°
2026-04-21 21:19 41.49752 45.20086 4477 ft 213 kts 253°
2026-04-21 21:19 41.49530 45.18170 4189 ft 208 kts 281°
2026-04-21 21:19 41.50065 45.16429 4024 ft 199 kts 300°
2026-04-21 21:19 41.50885 45.15039 4032 ft 182 kts 315°
2026-04-21 21:20 41.51780 45.13949 4010 ft 167 kts 316°
2026-04-21 21:20 41.52628 45.12915 4000 ft 163 kts 316°
2026-04-21 21:20 41.53461 45.11878 4009 ft 164 kts 316°
2026-04-21 21:20 41.54276 45.10851 3990 ft 155 kts 315°
2026-04-21 21:21 41.55102 45.09983 3834 ft 149 kts 329°
2026-04-21 21:21 41.56047 45.09428 3568 ft 148 kts 339°
2026-04-21 21:21 41.56980 45.08854 3240 ft 146 kts 331°
2026-04-21 21:21 41.57801 45.08114 2974 ft 140 kts 324°
2026-04-21 21:22 41.58603 45.07309 2553 ft 147 kts 324°
2026-04-21 21:22 41.59423 45.06478 2258 ft 146 kts 326°
2026-04-21 21:22 41.60223 45.05667 2014 ft 141 kts 322°
2026-04-21 21:22 41.60907 45.04823 2072 ft 139 kts 305°
2026-04-21 21:23 41.61425 45.03519 2319 ft 167 kts 297°
2026-04-21 21:23 41.61998 45.02119 2520 ft 179 kts 298°
2026-04-21 21:23 41.62582 45.00608 2501 ft 184 kts 304°
2026-04-21 21:23 41.63389 44.99421 2354 ft 173 kts 317°
2026-04-21 21:24 41.64326 44.98301 2075 ft 178 kts 323°
2026-04-21 21:24 41.65250 44.97278 1935 ft 175 kts 317°
2026-04-21 21:24 41.66166 44.96058 2129 ft 199 kts 314°
2026-04-21 21:24 41.67190 44.94554 2357 ft 237 kts 311°
2026-04-21 21:25 41.68296 44.92794 2671 ft 249 kts 309°
2026-04-21 21:25 41.69309 44.91049 2915 ft 224 kts 307°
2026-04-21 21:25 41.70170 44.89425 3092 ft 209 kts 304°
2026-04-21 21:25 41.70968 44.87775 3310 ft 218 kts 302°
2026-04-21 21:26 41.71521 44.86553 3528 ft 236 kts 300°
2026-04-21 21:26 41.73223 44.84769 4687 ft 237 kts 338°
2026-04-21 21:26 41.74233 44.84208 5516 ft 228 kts 334°
2026-04-21 21:26 41.75618 44.83338 6707 ft 215 kts 335°
2026-04-21 21:27 41.77062 44.83057 7477 ft 214 kts 357°
2026-04-21 21:27 41.78554 44.83450 7892 ft 220 kts 17°
2026-04-21 21:27 41.79831 44.84590 7992 ft 232 kts 40°
2026-04-21 21:27 41.80649 44.86521 7978 ft 243 kts 71°
2026-04-21 21:28 41.80643 44.88799 7952 ft 250 kts 105°
2026-04-21 21:28 41.79792 44.90764 7750 ft 248 kts 139°
2026-04-21 21:28 41.76677 44.92189 7065 ft 236 kts 181°
2026-04-21 21:29 41.75040 44.92435 6746 ft 237 kts 179°
2026-04-21 21:29 41.73438 44.92699 6518 ft 231 kts 176°
2026-04-21 21:29 41.71854 44.92964 6265 ft 228 kts 176°
2026-04-21 21:29 41.70278 44.93225 5961 ft 228 kts 176°
2026-04-21 21:30 41.68705 44.93485 5626 ft 230 kts 175°
2026-04-21 21:30 41.67086 44.93751 5259 ft 236 kts 175°
2026-04-21 21:30 41.65442 44.94022 4883 ft 239 kts 174°
2026-04-21 21:30 41.63801 44.94352 4563 ft 238 kts 168°
2026-04-21 21:31 41.62246 44.95085 4492 ft 238 kts 155°
2026-04-21 21:31 41.60834 44.96244 4488 ft 238 kts 144°
2026-04-21 21:31 41.59570 44.97670 4494 ft 238 kts 137°
2026-04-21 21:31 41.58373 44.99204 4485 ft 238 kts 141°
2026-04-21 21:32 41.56984 45.00393 4501 ft 237 kts 154°
2026-04-21 21:32 41.55486 45.01300 4497 ft 236 kts 159°
2026-04-21 21:32 41.53944 45.02071 4500 ft 236 kts 161°
2026-04-21 21:32 41.52401 45.02798 4494 ft 230 kts 162°
2026-04-21 21:33 41.50942 45.03499 4497 ft 217 kts 161°
2026-04-21 21:33 41.49537 45.04226 4498 ft 217 kts 156°
2026-04-21 21:33 41.48346 45.05452 4480 ft 219 kts 129°
2026-04-21 21:33 41.47761 45.07287 4337 ft 216 kts 95°
2026-04-21 21:34 41.48106 45.09183 4048 ft 212 kts 54°
2026-04-21 21:34 41.49081 45.10605 3985 ft 201 kts 47°
2026-04-21 21:34 41.50067 45.11870 3993 ft 194 kts 38°
2026-04-21 21:34 41.51228 45.12733 3978 ft 191 kts
2026-04-21 21:35 41.52502 45.12540 4035 ft 184 kts 340°
2026-04-21 21:35 41.53607 45.11701 3999 ft 184 kts 318°
2026-04-21 21:35 41.54521 45.10486 3999 ft 187 kts 315°
2026-04-21 21:35 41.55462 45.09294 3996 ft 186 kts 316°
2026-04-21 21:36 41.56400 45.08144 3993 ft 183 kts 317°
2026-04-21 21:36 41.57300 45.07057 3903 ft 168 kts 316°
2026-04-21 21:36 41.58152 45.06016 3672 ft 166 kts 316°
2026-04-21 21:36 41.58992 45.04965 3454 ft 164 kts 316°
2026-04-21 21:37 41.59808 45.03948 3196 ft 157 kts 317°
2026-04-21 21:37 41.60585 45.02983 2959 ft 148 kts 318°
2026-04-21 21:37 41.61317 45.02072 2752 ft 140 kts 319°
2026-04-21 21:37 41.62014 45.01205 2563 ft 135 kts 319°
2026-04-21 21:38 41.62701 45.00351 2395 ft 135 kts 320°
2026-04-21 21:38 41.63382 44.99502 2212 ft 133 kts 320°
2026-04-21 21:38 41.64067 44.98679 2074 ft 133 kts 319°
2026-04-21 21:38 41.64739 44.97835 1847 ft 131 kts 317°
2026-04-21 21:39 41.65403 44.97007 1682 ft 131 kts 317°
2026-04-21 21:39 41.66062 44.96179 1533 ft 128 kts 319°
2026-04-21 21:39 41.66646 44.95451 1522 ft 99 kts 316°
2026-04-21 21:39 41.67035 44.94962 1524 ft 44 kts 317°
2026-04-21 21:40 41.67251 44.94691 1522 ft 42 kts 317°
2026-04-21 21:40 41.67432 44.94465 1524 ft 16 kts 317°
2026-04-21 21:40 41.67525 44.94441 1527 ft 14 kts 41°
2026-04-21 21:40 41.67550 44.94510 1523 ft 0 kts 72°
2026-04-21 21:41 41.67551 44.94514 1523 ft 5 kts 72°
2026-04-21 21:41 41.67572 44.94598 1532 ft 11 kts 71°
2026-04-21 21:41 41.67600 44.94711 1526 ft 14 kts 72°
2026-04-21 21:41 41.67632 44.94850 1525 ft 17 kts 73°
2026-04-21 21:42 41.67661 44.95000 1525 ft 15 kts 88°
2026-04-21 21:42 41.67617 44.95107 1525 ft 12 kts 133°
2026-04-21 21:42 41.67554 44.95200 1525 ft 15 kts 132°
2026-04-21 21:42 41.67480 44.95309 1525 ft 17 kts 132°
2026-04-21 21:43 41.67398 44.95434 1524 ft 19 kts 130°
2026-04-21 21:43 41.67310 44.95561 1524 ft 19 kts 134°
2026-04-21 21:43 41.67214 44.95695 1525 ft 21 kts 134°
2026-04-21 21:43 41.67112 44.95835 1524 ft 18 kts 132°
2026-04-21 21:44 41.67034 44.95975 1524 ft 19 kts 131°
2026-04-21 21:44 41.66948 44.96101 1527 ft 19 kts 133°
2026-04-21 21:44 41.66877 44.96211 1524 ft 12 kts 131°
2026-04-21 21:44 41.66818 44.96294 1526 ft 12 kts 133°
2026-04-21 21:45 41.66772 44.96346 1526 ft 5 kts 165°
2026-04-21 21:45 41.66738 44.96331 1527 ft 6 kts 209°
2026-04-21 21:45 41.66706 44.96296 1526 ft 6 kts 222°
2026-04-21 21:45 41.66705 44.96294 1526 ft 0 kts 221°